Regional Weather Roundup
Issued by NWS Kansas City/Pleasant Hill, MO

Home | Current Version | Previous Version | Text Only | Print | Product List | Glossary On
Versions: 1 2 3 4 5 6 7 8 9 10 11 12 13 14 15 16 17 18 19 20 21 22 23 24 25 26 27 28 29 30 31 32 33 34 35 36 37 38 39 40 41 42 43 44 45 46 47 48 49 50
000
ASUS43 KEAX 041410
RWREAX

WEATHER ROUNDUP FOR EASTERN KANSAS AND NORTHWEST MISSOURI
NATIONAL WEATHER SERVICE KANSAS CITY/PLEASANT HILL MO
900 AM CDT MON MAY 04 2015

KSZ040-057-103>105-MOZ028-029-037-043-041500-
...KANSAS CITY METROPOLITAN AREA...

CITY           SKY/WX    TMP DP  RH WIND       PRES   REMARKS
K.C. INTL      CLOUDY    66  58  75 S5        30.00S
K.C. DOWNTOWN  CLOUDY    68  57  68 CALM      29.98F
LEES SUMMIT    CLOUDY    66  58  75 SW7       30.02R
OLATHE - IXD   CLOUDY    63  59  87 S12       30.03F
OLATHE - OJC   CLOUDY    63  59  87 S10       30.02S
LAWRENCE       CLOUDY    65  58  78 S8        30.01R

$$

MOZ001>008-011>017-020>025-030>033-038>040-044>046-053-054-041500-
...NORTHERN AND CENTRAL MISSOURI...

CITY           SKY/WX    TMP DP  RH WIND       PRES   REMARKS
ST. JOSEPH     CLOUDY    69  57  65 N6        30.03R
MOSBY          CLOUDY    68  55  64 CALM      30.02R
WARRENSBURG    CLOUDY    68  55  64 S12G21    30.03F
WHITEMAN AFB   PTSUNNY   68  59  72 SW16      30.03S
CLINTON        LGT RAIN  64  61  88 S6        30.08R
SEDALIA        PTSUNNY   65  59  81 S14       30.06S
WARSAW         NOT AVBL
MARSHALL       PTSUNNY   70  61  73 SW8       30.05R
CHILLICOTHE      N/A     69  60  73 VRB5      30.05R
KIRKSVILLE     CLOUDY    69  60  73 W8        30.06R

$$

MOZ041-047>049-056>058-063>065-088>090-097-041500-
...EASTERN AND SOUTHERN MISSOURI...

CITY           SKY/WX    TMP DP  RH WIND       PRES   REMARKS
ST. LOUIS INTL CLOUDY    71  60  68 S5        30.11R
SPIRIT OF STL  CLOUDY    69  60  73 CALM      30.11R
COLUMBIA       CLOUDY    66  58  75 S8        30.07S
JEFFERSON CITY PTSUNNY   70  58  65 S7        30.08R
MEXICO         CLOUDY    70  61  73 S10       30.06R
HANNIBAL       CLOUDY    70  55  60 SW7       30.05S
ROLLA          MOSUNNY   70  58  65 S13       30.10R
LEBANON        SUNNY     72  57  60 S9        30.12R
OSAGE BEACH    MOSUNNY   70  57  64 S5        30.09S
SPRINGFIELD    FAIR      70  56  61 S16       30.10R
BRANSON        PTSUNNY   70  57  64 S9        30.13S
NEVADA         CLOUDY    68  57  68 SW10      30.08R
JOPLIN         PTSUNNY   70  56  61 S16       30.07S
WEST PLAINS    PTSUNNY   71  57  61 S9        30.15R

$$

IAZ060-094-KSZ022-034>040-054-083-096-NEZ052-066-093-041500-
...KANSAS...SOUTHEAST NEBRASKA AND IOWA...

CITY           SKY/WX    TMP DP  RH WIND       PRES   REMARKS
TOPEKA         CLOUDY    66  59  78 S6        30.00S
MANHATTAN      CLOUDY    69  58  67 SW8       29.96R
EMPORIA        MOSUNNY   68  58  70 SW8       30.02R
CHANUTE        MOSUNNY   69  58  67 S13       30.05R
WICHITA        CLOUDY    67  57  70 S12       30.02R
OMAHA          LGT RAIN  59  51  75 N18       30.04S
LINCOLN        LGT RAIN  59  50  72 NE8       30.07R
FALLS CITY     CLOUDY    64  58  80 E8        30.01S
LAMONI         CLOUDY    66  59  78 NW10      30.03R
DES MOINES     CLOUDY    66  57  72 NE14      30.02R

$$



USA.gov is the U.S. government's official web portal to all federal, state and local government web resources and services.